This is the latest recevied weather packets stored in our database for station/object N3WMC. If no packets are shown the sender has not sent any weather packets the latest 10 day(s).
| Time | Temp. | Humidity | Pressure | Rain* | Wind** | Luminosity | Snow |
|---|---|---|---|---|---|---|---|
| 1777571738 | 8.33° C | 78% | 1014.1 hPa | 0 mm | - | 175 W/m² | - |
| 1777571436 | 8.33° C | 79% | 1014.1 hPa | 0 mm | - | 169 W/m² | - |
| 1777571132 | 7.78° C | 79% | 1014 hPa | 0 mm | - | 101 W/m² | - |
| 1777570828 | 7.78° C | 79% | 1013.9 hPa | 0 mm | - | 100 W/m² | - |
| 1777570524 | 7.78° C | 78% | 1014.1 hPa | 0 mm | - | 90 W/m² | - |
| 1777570221 | 7.78° C | 79% | 1014.1 hPa | 0 mm | - | 67 W/m² | - |
| 1777569915 | 8.33° C | 80% | 1014 hPa | 0 mm | - | 91 W/m² | - |
| 1777569612 | 8.33° C | 78% | 1014.2 hPa | 0 mm | - | 132 W/m² | - |
| 1777569309 | 8.33° C | 79% | 1014.2 hPa | 0 mm | - | 186 W/m² | - |
| 1777569005 | 8.33° C | 80% | 1014 hPa | 0 mm | - | 188 W/m² | - |
| 1777568701 | 7.78° C | 80% | 1013.9 hPa | 0 mm | - | 196 W/m² | - |
| 1777568399 | 8.33° C | 80% | 1013.8 hPa | 0 mm | - | 126 W/m² | - |
| 1777568096 | 7.78° C | 82% | 1013.8 hPa | 0 mm | - | 166 W/m² | - |
| 1777567793 | 7.78° C | 83% | 1014 hPa | 0 mm | - | 116 W/m² | - |
| 1777567489 | 7.78° C | 84% | 1014.1 hPa | 0 mm | - | 63 W/m² | - |
| 1777567187 | 7.78° C | 84% | 1014 hPa | 0 mm | - | 166 W/m² | - |
| 1777566885 | 7.78° C | 86% | 1013.7 hPa | 0 mm | - | 121 W/m² | - |
| 1777566582 | 7.78° C | 84% | 1013.8 hPa | 0 mm | - | 193 W/m² | - |
| 1777566279 | 8.33° C | 83% | 1013.7 hPa | 0 mm | - | 121 W/m² | - |
| 1777565977 | 8.33° C | 83% | 1013.8 hPa | 0 mm | - | 204 W/m² | - |
| 1777565672 | 7.78° C | 84% | 1013.8 hPa | 0 mm | - | 147 W/m² | - |
| 1777565369 | 8.33° C | 84% | 1013.6 hPa | 0 mm | - | 172 W/m² | - |
| 1777565065 | 8.33° C | 84% | 1013.7 hPa | 0 mm | - | 183 W/m² | - |
| 1777564761 | 7.78° C | 84% | 1013.6 hPa | 0 mm | - | 208 W/m² | - |
| 1777564456 | 7.78° C | 85% | 1013.6 hPa | 0 mm | - | 176 W/m² | - |
* Rain latest hour (hover to see other rain measurements)
** Current wind speed in m/s (hover to see current wind gust speed)